Date String (YYYY-MM-DD hh:mm:ss) UTC,Instrument flags,absolute air pressure of the measurement (hPa),sample flow rate (lpm),inlet stack bypass flow (lpm),air temperature of the measurement (°C),ambient temperature measured by the external sensor (°C),aerosol sample conditioner tube jacket temperature (°C),OPC LED temperature (°C),internal box temperature (°C),relative humidity of the measurement (%),span deviation,mass concentration of particles derived from Lorenz-Mie calculation of OPC scattering (μg/m³),mass concentration of particles derived from Lorenz-Mie calculation of OPC scattering (μg/m³),mass concentration of particles derived from Lorenz-Mie calculation of OPC scattering (μg/m³)
DateTimeUTC,F1_M11,P_M11,Q1_M11,Q2_M11,T1_M11,T2_M11,T3_M11,T4_M11,T5_M11,U1_M11,ZSPAN_M11,X2_M11,X0_M11,X1_M11
2023-08-20 12:00:00,SystemResetWarning,0837.2,5.00,000.00,029.5,024.6,000.0,037.9,030.0,35.1,0001.9,0009.20,0014.66,0008.20
2023-08-20 12:01:00,SystemResetWarning,0837.2,5.04,000.00,029.5,025.0,000.0,037.9,030.1,35.1,0001.8,0009.16,0014.58,0008.19
2023-08-20 12:02:00,SystemResetWarning,0837.2,4.96,000.00,029.6,025.3,000.0,037.9,030.2,34.2,0001.4,0009.12,0014.49,0008.19
2023-08-20 12:03:00,SystemResetWarning,0837.2,5.03,000.00,029.7,025.7,000.0,037.9,030.3,34.3,0001.5,0009.12,0013.84,0008.20
2023-08-20 12:04:00,SystemResetWarning,0837.2,4.99,000.00,029.8,026.0,000.0,037.9,030.4,34.4,0001.4,0009.07,0013.74,0008.20
2023-08-20 12:05:00,SystemResetWarning,0837.2,5.00,000.00,029.8,026.3,000.0,037.9,030.4,34.5,0001.5,0009.12,0013.70,0008.22
2023-08-20 12:06:00,SystemResetWarning,0837.3,4.99,000.00,029.8,026.6,000.0,038.0,030.4,34.5,0001.7,0009.17,0013.57,0008.23
2023-08-20 12:07:00,SystemResetWarning,0837.2,5.01,000.00,029.8,026.8,000.0,038.0,030.4,34.6,0001.8,0009.18,0013.87,0008.25
2023-08-20 12:08:00,SystemResetWarning,0837.2,5.01,000.00,029.8,026.9,000.0,038.0,030.5,34.6,0002.1,0009.23,0013.81,0008.28
2023-08-20 12:09:00,SystemResetWarning,0837.2,4.99,000.00,029.8,027.1,000.0,038.0,030.5,34.6,0002.3,0009.26,0013.83,0008.32
2023-08-20 12:10:00,SystemResetWarning,0837.2,4.99,000.00,029.8,027.2,000.0,038.1,030.5,34.7,0002.3,0009.33,0014.04,0008.39
2023-08-20 12:11:00,SystemResetWarning,0837.2,5.00,000.00,029.8,027.3,000.0,038.1,030.6,34.8,0002.0,0009.43,0014.19,0008.46
2023-08-20 12:12:00,SystemResetWarning,0837.2,5.00,000.00,029.8,027.3,000.0,038.1,030.6,34.9,0002.1,0009.46,0014.24,0008.48
2023-08-20 12:13:00,SystemResetWarning,0837.2,5.00,000.00,029.8,027.4,000.0,038.1,030.6,34.9,0002.7,0009.53,0014.37,0008.53
2023-08-20 12:14:00,SystemResetWarning,0837.2,4.98,000.00,029.8,027.5,000.0,038.1,030.6,35.0,0002.7,0009.60,0014.61,0008.60
2023-08-20 12:15:00,SystemResetWarning,0837.3,5.01,000.00,029.9,027.5,000.0,038.2,030.7,35.1,0002.9,0009.66,0014.62,0008.67
2023-08-20 12:16:00,SystemResetWarning,0837.2,5.00,000.00,030.1,027.3,000.0,038.1,030.8,34.7,0002.6,0009.71,0015.03,0008.73
2023-08-20 12:17:00,SystemResetWarning,0837.2,4.99,000.00,030.2,025.6,000.0,038.0,030.7,34.5,0002.5,0009.75,0015.81,0008.81
2023-08-20 12:18:00,SystemResetWarning,0837.2,5.02,000.00,030.2,024.6,000.0,037.9,030.5,34.3,0002.5,0009.85,0015.82,0008.87
2023-08-20 12:19:00,SystemResetWarning,0837.2,5.00,000.00,030.1,024.6,000.0,037.9,030.2,34.5,0002.3,0009.89,0016.60,0008.93
2023-08-20 12:20:00,SystemResetWarning,0837.2,5.00,000.00,030.0,024.9,000.0,038.0,030.1,34.8,0002.1,0009.91,0016.53,0008.97
2023-08-20 12:21:00,SystemResetWarning,0837.2,4.98,000.00,029.9,025.3,000.0,038.0,030.1,35.0,0002.3,0009.95,0016.23,0009.02
2023-08-20 12:22:00,SystemResetWarning,0837.2,5.04,000.00,030.0,025.6,000.0,038.0,030.3,35.1,0002.5,0009.94,0016.17,0009.03
2023-08-20 12:23:00,SystemResetWarning,0837.2,4.96,000.00,030.1,026.0,000.0,038.1,030.4,34.6,0002.6,0010.00,0016.32,0009.07
2023-08-20 12:24:00,SystemResetWarning,0837.2,5.02,000.00,030.2,026.3,000.0,038.1,030.5,34.4,0002.3,0010.02,0016.68,0009.10
2023-08-20 12:25:00,SystemResetWarning,0837.2,5.00,000.00,030.3,026.5,000.0,038.1,030.5,34.3,0002.1,0010.02,0017.30,0009.12
2023-08-20 12:26:00,SystemResetWarning,0837.2,5.00,000.00,030.3,026.7,000.0,038.2,030.5,34.3,0002.2,0010.08,0017.49,0009.12
2023-08-20 12:27:00,SystemResetWarning,0837.3,5.00,000.00,030.3,026.9,000.0,038.2,030.6,34.3,0002.3,0010.12,0017.64,0009.12
2023-08-20 12:28:00,SystemResetWarning,0837.2,4.99,000.00,030.3,027.0,000.0,038.3,030.6,34.3,0002.6,0010.14,0016.62,0009.14
2023-08-20 12:29:00,SystemResetWarning,0837.2,5.00,000.00,030.3,027.1,000.0,038.3,030.6,34.3,0002.6,0010.16,0016.36,0009.16
2023-08-20 12:30:00,SystemResetWarning,0837.3,5.00,000.00,030.3,027.3,000.0,038.3,030.7,34.4,0002.9,0010.17,0015.58,0009.18
2023-08-20 12:31:00,SystemResetWarning,0837.3,4.99,000.00,030.3,027.3,000.0,038.4,030.7,34.5,0003.2,0010.20,0015.32,0009.22
2023-08-20 12:32:00,SystemResetWarning,0837.4,5.00,000.00,030.3,027.4,000.0,038.4,030.7,34.4,0002.9,0010.24,0015.63,0009.27
2023-08-20 12:33:00,SystemResetWarning,0837.4,5.00,000.00,030.3,027.5,000.0,038.4,030.7,34.4,0002.6,0010.28,0015.70,0009.33
2023-08-20 12:34:00,SystemResetWarning,0837.4,5.00,000.00,030.2,027.5,000.0,038.4,030.8,34.5,0002.6,0010.29,0015.60,0009.36
2023-08-20 12:35:00,SystemResetWarning,0837.4,5.01,000.00,030.2,027.6,000.0,038.4,030.8,34.4,0002.5,0010.33,0015.39,0009.39
2023-08-20 12:36:00,SystemResetWarning,0837.4,4.99,000.00,030.2,027.0,000.0,038.4,030.7,34.5,0002.6,0010.38,0014.69,0009.43
2023-08-20 12:37:00,SystemResetWarning,0837.4,4.99,000.00,030.2,025.3,000.0,038.3,030.5,34.5,0002.5,0010.38,0014.38,0009.47
2023-08-20 12:38:00,SystemResetWarning,0837.3,5.01,000.00,030.1,024.6,000.0,038.2,030.3,34.6,0002.4,0010.42,0014.32,0009.51
2023-08-20 12:39:00,SystemResetWarning,0837.2,4.99,000.00,029.9,024.7,000.0,038.2,030.0,35.1,0002.2,0010.49,0014.51,0009.57
2023-08-20 12:40:00,SystemResetWarning,0837.2,5.02,000.00,029.9,025.0,000.0,038.2,030.1,35.4,0002.2,0010.53,0014.57,0009.60
2023-08-20 12:41:00,SystemResetWarning,0837.3,5.01,000.00,030.1,025.4,000.0,038.2,030.3,35.1,0002.3,0010.61,0014.67,0009.66
2023-08-20 12:42:00,SystemResetWarning,0837.4,4.98,000.00,030.4,025.8,000.0,038.2,030.5,34.7,0002.0,0010.65,0015.60,0009.72
2023-08-20 12:43:00,SystemResetWarning,0837.4,5.01,000.00,030.5,026.1,000.0,038.2,030.6,34.5,0001.6,0010.70,0016.24,0009.75
2023-08-20 12:44:00,SystemResetWarning,0837.4,5.01,000.00,030.6,026.4,000.0,038.2,030.7,34.1,0001.7,0010.74,0016.38,0009.78
2023-08-20 12:45:00,SystemResetWarning,0837.4,5.00,000.00,030.7,026.6,000.0,038.3,030.7,33.9,0001.9,0010.78,0016.86,0009.83
2023-08-20 12:46:00,SystemResetWarning,0837.4,5.00,000.00,030.7,026.8,000.0,038.4,030.7,34.1,0001.8,0010.85,0017.26,0009.85
2023-08-20 12:47:00,SystemResetWarning,0837.4,4.99,000.00,030.7,027.0,000.0,038.4,030.7,34.3,0001.8,0010.89,0017.55,0009.86
2023-08-20 12:48:00,SystemResetWarning,0837.5,5.00,000.00,030.7,027.1,000.0,038.5,030.7,34.2,0001.7,0010.95,0017.65,0009.87
2023-08-20 12:49:00,SystemResetWarning,0837.5,5.00,000.00,030.7,027.3,000.0,038.6,030.8,34.1,0001.8,0010.94,0017.75,0009.88
2023-08-20 12:50:00,SystemResetWarning,0837.5,5.01,000.00,030.7,027.4,000.0,038.6,030.8,34.3,0001.9,0010.93,0017.70,0009.88
2023-08-20 12:51:00,SystemResetWarning,0837.5,5.01,000.00,030.7,027.4,000.0,038.6,030.8,34.4,0002.0,0010.91,0017.59,0009.89
2023-08-20 12:52:00,SystemResetWarning,0837.6,5.01,000.00,030.7,027.5,000.0,038.7,030.9,34.5,0001.9,0010.91,0017.63,0009.90
2023-08-20 12:53:00,SystemResetWarning,0837.6,5.00,000.00,030.7,027.6,000.0,038.7,030.9,34.5,0001.9,0010.96,0017.15,0009.90
2023-08-20 12:54:00,SystemResetWarning,0837.6,5.00,000.00,030.6,027.6,000.0,038.7,030.9,34.3,0002.5,0010.98,0016.32,0009.90
2023-08-20 12:55:00,SystemResetWarning,0837.6,4.98,000.00,030.6,026.6,000.0,038.7,030.7,34.4,0002.7,0011.00,0016.02,0009.89
2023-08-20 12:56:00,SystemResetWarning,0837.5,5.00,000.00,030.5,024.8,000.0,038.5,030.4,34.6,0002.2,0010.98,0015.75,0009.89
2023-08-20 12:57:00,SystemResetWarning,0837.5,5.00,000.00,030.5,024.1,000.0,038.4,030.3,34.6,0002.2,0010.95,0015.68,0009.91
2023-08-20 12:58:00,SystemResetWarning,0837.6,5.00,000.00,030.3,024.2,000.0,038.4,030.1,34.9,0002.3,0010.96,0015.43,0009.95
2023-08-20 12:59:00,SystemResetWarning,0837.5,5.01,000.00,030.2,024.6,000.0,038.4,030.1,35.5,0002.2,0010.98,0015.43,0009.99
